Weather History for Westhampton Beach, NY

Change the Weather History Date:

Tuesday, May 14, 2013

  Actual Average Record
Temperature  
Mean Temperature 44 °F -  
Max Temperature 60 °F 63 °F 72 °F (2000)
Min Temperature 30 °F 42 °F 28 °F (2007)
Degree Days  
Heating Degree Days 20    
Moisture  
Dew Point 31 °F    
Average Humidity 55    
Maximum Humidity 83    
Minimum Humidity 26    
Precipitation  
Precipitation 0.00 in - - ()
Sea Level Pressure  
Sea Level Pressure 30.08 in    
Wind  
Wind Speed 7 mph (WNW)    
Max Wind Speed 14 mph    
Max Gust Speed 24 mph    
Visibility 10 miles    
Events      
Averages and records for this station are not official NWS values.
T = Trace of Precipitation, MM = Missing Value Source: NWS Daily Summary

Daily Weather History Graph

Daily Weather History Graph

Search for Another Location

Airport:

Trip Planner

Search our weather history database for the weather conditions in past years. The results will help you decide how hot, cold, wet, or windy it might be!

Date:

Astronomy

May. 14, 2013 Rise Set
Actual Time 5:33 AM EDT 8:00 PM EDT
Civil Twilight 5:02 AM EDT 8:31 PM EDT
Nautical Twilight 4:24 AM EDT 9:10 PM EDT
Astronomical Twilight 3:41 AM EDT 9:53 PM EDT
Moon 9:10 AM EDT (5/14) 11:45 PM EDT (5/14)
Length of Visible Light 15h 28m
Length of Day
14h 26m
Waxing Crescent, 19% of the Moon is Illuminated
May 14
Waxing Crescent
May 18
First Quarter
May 25
Full
May 31
Last Quarter
Jun 8
New

Hourly Weather History & Observations

Time (EDT) Temp. Windchill Dew Point Humidity Pressure Visibility Wind Dir Wind Speed Gust Speed Precip Events Conditions
12:53 AM 32.0 °F 28.7 °F 24.1 °F 73% 30.09 in 10.0 mi NW 3.5 mph - N/A   Clear
1:53 AM 30.9 °F - 25.0 °F 79% 30.09 in 10.0 mi Calm Calm - N/A   Clear
2:53 AM 30.9 °F 27.5 °F 25.0 °F 79% 30.09 in 10.0 mi NNW 3.5 mph - N/A   Clear
3:53 AM 37.0 °F 33.3 °F 28.9 °F 73% 30.08 in 10.0 mi NW 4.6 mph - N/A   Clear
4:53 AM 39.9 °F 36.7 °F 30.0 °F 68% 30.08 in 10.0 mi NNW 4.6 mph - N/A   Clear
5:53 AM 39.0 °F 34.8 °F 30.9 °F 73% 30.09 in 10.0 mi NW 5.8 mph - N/A   Clear
6:53 AM 45.0 °F 39.7 °F 33.1 °F 63% 30.10 in 10.0 mi NNW 10.4 mph - N/A   Clear
7:53 AM 48.9 °F - 32.0 °F 52% 30.11 in 10.0 mi NW 12.7 mph - N/A   Clear
8:53 AM 50.0 °F - 30.9 °F 48% 30.10 in 10.0 mi NNW 13.8 mph - N/A   Clear
9:53 AM 53.1 °F - 30.0 °F 41% 30.10 in 10.0 mi NNW 8.1 mph 19.6 mph N/A   Clear
10:53 AM 55.0 °F - 30.0 °F 38% 30.10 in 10.0 mi NW 10.4 mph - N/A   Clear
11:53 AM 55.9 °F - 23.0 °F 28% 30.10 in 10.0 mi Variable 4.6 mph - N/A   Partly Cloudy
12:53 PM 57.9 °F - 24.1 °F 27% 30.09 in 10.0 mi NW 12.7 mph 24.2 mph N/A   Scattered Clouds
1:53 PM 59.0 °F - 24.1 °F 26% 30.08 in 10.0 mi NNW 13.8 mph 17.3 mph N/A   Clear
2:35 PM 57.2 °F - 33.8 °F 41% 30.08 in 10.0 mi SW 8.1 mph 19.6 mph N/A   Mostly Cloudy
2:53 PM 57.9 °F - 34.0 °F 41% 30.07 in 10.0 mi SW 10.4 mph 21.9 mph N/A   Mostly Cloudy
3:53 PM 59.0 °F - 24.1 °F 26% 30.06 in 10.0 mi WNW 11.5 mph - N/A   Mostly Cloudy
4:53 PM 59.0 °F - 32.0 °F 36% 30.05 in 10.0 mi SW 9.2 mph 19.6 mph N/A   Partly Cloudy
5:53 PM 55.9 °F - 34.0 °F 44% 30.05 in 10.0 mi SSW 11.5 mph 19.6 mph N/A   Clear
6:53 PM 53.1 °F - 37.0 °F 55% 30.06 in 10.0 mi SSW 11.5 mph - N/A   Clear
7:53 PM 51.1 °F - 37.9 °F 61% 30.06 in 10.0 mi SW 9.2 mph - N/A   Clear
8:53 PM 50.0 °F - 39.0 °F 66% 30.08 in 10.0 mi WSW 10.4 mph 18.4 mph N/A   Clear
9:53 PM 48.9 °F - 39.9 °F 71% 30.09 in 10.0 mi SW 5.8 mph - N/A   Clear
10:53 PM 48.9 °F - 42.1 °F 77% 30.10 in 10.0 mi SW 3.5 mph - N/A   Clear
11:53 PM 39.9 °F - 35.1 °F 83% 30.11 in 10.0 mi Calm Calm - N/A   Clear